User: anonymous   Login
Location: Unspecified
(0.0000°N, 0.0000°E)
Time: 23:41:32
(UTC+02:00)
Language:

Ariane H10 - Orbit

View from above orbital plane
View from above orbital plane
View from above satellite
View from above satellite

Ground track
Ground track

The orbit data is extracted from the following two-line orbital elements,

1 21815U 91084C   16210.16507028  .00000019  00000-0  72306-4 0  9990
2 21815   3.7960 220.1860 7179592 165.1598 239.8286  2.31663640204823
Epoch (UTC): 28 July 2016 03:57:42
Eccentricity: 0.7179592
inclination: 3.7960°
perigee height: 426 km
apogee height: 35070 km
right ascension of ascending node: 220.1860°
argument of perigee: 165.1598°
revolutions per day: 2.31663640
mean anomaly at epoch: 239.8286°
orbit number at epoch: 20482

The dashed part of the orbit path shows where the satellite is in the earth's shadow,  

DLR